This demonstration page uses our WeatherBlox Daily Observations layout. Learn more.

Left ArrowRight Arrow

36.19886, -115.1175

Hourly Observations for June 24, 2021

Temp ( °F °C ) Dew Point ( °F °C ) Humidity (%) Winds ( mph kmh ) Pressure ( in mb ) Visibility ( mi km ) Precip ( " mm )
12:53 am 00:53 Clear 80 26.7 47 8.3 31 31 WNW 6 9 29.87 1012 10 16 N/A
1:53 am 01:53 Clear 78 25.6 47 8.3 33 33 WNW 3 6 29.87 1012 10 16 N/A
2:53 am 02:53 Clear 78 25.6 47 8.3 33 33 N N/A 29.88 1012 10 16 N/A
3:53 am 03:53 Clear 77 25 47 8.3 35 35 N N/A 29.89 1012 10 16 N/A
4:53 am 04:53 Clear 76 24.4 47 8.3 36 36 NW 6 9 29.88 1012 10 16 N/A
5:53 am 05:53 Sunny 76 24.4 46 7.8 35 35 NNW 5 7 29.89 1012 10 16 N/A
6:53 am 06:53 Sunny 79 26.1 46 7.8 31 31 N 7 11 29.90 1013 10 16 N/A
7:53 am 07:53 Sunny 82 27.8 50 10 33 33 N 6 9 29.91 1013 10 16 N/A
8:53 am 08:53 Sunny 85 29.4 51 10.6 31 31 N 6 9 29.92 1013 10 16 N/A
9:53 am 09:53 Sunny 89 31.7 49 9.4 25 25 VRB 3 6 29.91 1013 10 16 N/A
10:53 am 10:53 Sunny 91 32.8 48 8.9 23 23 VRB 5 7 29.90 1012 10 16 N/A
11:53 am 11:53 Sunny 94 34.4 49 9.4 21 21 SE 10 17 29.87 1011 10 16 N/A
12:53 pm 12:53 Sunny 96 35.6 48 8.9 19 19 SSE 7 11 29.85 1011 10 16 N/A
1:09 pm 13:09 Sunny with Nearby Thunderstorms 96 35.6 48 8.9 19 19 undefined N/A 29.69 1005 10 16 N/A
1:53 pm 13:53 Mostly Cloudy with Nearby Thunderstorms 87 30.6 53 11.7 31 31 SSE 13 20 29.88 1012 10 16 0.00 0.00
2:33 pm 14:33 Partly Cloudy 89 31.7 52 11.1 28 28 SSE 10 17 29.74 1007 10 16 0.00 0.00
2:53 pm 14:53 Partly Cloudy 89 31.7 52 11.1 28 28 SE 5 7 29.87 1012 10 16 0.00 0.00
3:53 pm 15:53 Sunny 93 33.9 50 10 23 23 S 12 19 29.83 1010 10 16 N/A
4:53 pm 16:53 Sunny 94 34.4 48 8.9 21 21 E 7 11 29.81 1010 10 16 N/A
5:53 pm 17:53 Sunny 95 35 48 8.9 20 20 ENE 10 17 29.79 1009 10 16 N/A
6:53 pm 18:53 Sunny 93 33.9 48 8.9 21 21 ESE 6 9 29.80 1009 10 16 N/A
7:53 pm 19:53 Sunny 92 33.3 48 8.9 22 22 E 6 9 29.79 1009 10 16 N/A
8:03 pm 20:03 Clear with Nearby Thunderstorms 92 33.3 48 8.9 22 22 E 7 11 29.65 1004 10 16 N/A
8:18 pm 20:18 Clear 90 32.2 53 11.7 28 28 SSW 17 28 29.66 1004 10 16 N/A
8:29 pm 20:29 Clear 88 31.1 53 11.7 30 30 S 12 19 29.68 1005 10 16 N/A
8:53 pm 20:53 Clear 88 31.1 53 11.7 30 30 SSW 7 11 29.80 1009 10 16 N/A
9:53 pm 21:53 Clear 89 31.7 51 10.6 27 27 N N/A 29.81 1010 10 16 N/A
10:53 pm 22:53 Clear 87 30.6 52 11.1 30 30 ENE 3 6 29.81 1010 10 16 N/A
11:53 pm 23:53 Clear 83 28.3 52 11.1 34 34 E 6 9 29.81 1010 10 16 N/A

Powered by AerisWeather